Location: El Bakhil
(32.7726°N, 5.5387°W)
Time: 20:20:19
(UTC+00:00)

Envisat - Pass Details

Date: 06 December 2021
Orbit: 764 x 766 km, 98.2° (Epoch: 18 January)

Event Time Altitude Azimuth Distance (km) Brightness Sun altitude
Rises 06:00:22 0° 360° (N) 3,235 6.1 -14.5°
Reaches altitude 10° 06:02:52 10° 351° (N) 2,305 5.2 -14.0°
Maximum altitude 06:07:21 32° 289° (WNW) 1,284 3.6 -13.1°
Drops below altitude 10° 06:11:48 10° 227° (SW) 2,293 5.2 -12.2°
Sets 06:14:18 0° 217° (SW) 3,215 6.0 -11.7°
